Regional Weather Roundup
Issued by NWS

Home | Current Version | Previous Version | Graphics & Text | Print | Product List | Glossary On
Versions: 1 2 3 4 5 6 7 8 9 10 11 12 13 14 15 16 17 18 19 20 21 22 23 24 25 26 27 28 29 30 31 32 33 34 35 36 37 38 39 40 41 42 43 44 45 46 47 48 49 50
000
ASUS43 KIND 230759
RWRIN

WEATHER ROUNDUP FOR INDIANA
NATIONAL WEATHER SERVICE INDIANAPOLIS IN
300 AM EST FRI FEB 23 2018

NOTE: "FAIR" INDICATES FEW OR NO CLOUDS BELOW 12,000 FEET WITH NO
SIGNIFICANT WEATHER AND/OR OBSTRUCTIONS TO VISIBILITY.

* - STATION DOES NOT REPORT WEATHER SUCH AS PRECIPITATION OR FOG.

+ - STATION NOT QUALITY CONTROLLED BY THE NATIONAL WEATHER SERVICE.
    USE DATA WITH CAUTION...ESPECIALLY DEWPOINT AND RELATIVE
    HUMIDITY OBSERVATIONS.

INZ001>003-010>013-019-020-230900-
NORTHWEST INDIANA

CITY           SKY/WX    TMP DP  RH WIND       PRES   REMARKS
MONTICELLO +   CLOUDY    37  36  94 E6        30.24F FOG     WCI  33
RENSSELAER +   FOG       37  36  93 E14       30.21F VSB 1   WCI  29

$$

LMZ046-743>745-230900-
SOUTHERN LAKE MICHIGAN

STATION/POSITION TIME  TEMP    WIND        PRES    WAVE
                       AIR SEA DIR/SP/G            HT
                 (UTC) (F)     (DEG/KT/KT) (MB)    (FT)
BURNS HARBOR     0740   38     120/  9/ 17 1023.7F
MICHIGAN CITY    0730   37     100/ 13/ 15   N/A

$$

INZ004-005-014>016-021>024-230900-
NORTH CENTRAL INDIANA

CITY           SKY/WX    TMP DP  RH WIND       PRES   REMARKS
GOSHEN         CLOUDY    36  34  92 E15       30.27F FOG     WCI  27
PERU/GRISSOM   CLOUDY    37  37 100 E9        30.25F FOG     WCI  30
SOUTH BEND     CLOUDY    35  34  96 E13       30.25F FOG     WCI  26
WARSAW +       CLOUDY    34  34 100 MISG      30.27F FOG

$$

INZ006>009-017-018-025>027-230900-
NORTHEAST INDIANA

CITY           SKY/WX    TMP DP  RH WIND       PRES   REMARKS
AUBURN +       CLOUDY    34  34 100 E9        30.32F FOG     WCI  26
FORT WAYNE     DRZL/FOG  36  36 100 NE12      30.31S VSB 1   WCI  28
KENDALLVILLE + CLOUDY    34  34 100 E9        30.29F FOG     WCI  27

$$

INZ028-029-035-036-043>045-051>053-230900-
WEST CENTRAL INDIANA

CITY           SKY/WX    TMP DP  RH WIND       PRES   REMARKS
GREENCASTLE +  CLOUDY    43  43 100 SE7       30.22F FOG
LAFAYETTE      CLOUDY    44  44 100 E10       30.21F FOG
TERRE HAUTE    LGT RAIN  46  45  96 SE7       30.20F

$$

INZ030>032-037>040-046>048-054>057-064-065-230900-
CENTRAL INDIANA

CITY           SKY/WX    TMP DP  RH WIND       PRES   REMARKS
GREENWOOD *+   CLOUDY    42 -47   1 SE9       30.25F
INDIANAPOLIS   CLOUDY    44  44 100 SE9       30.23F FOG
-EAGLE CREEK   CLOUDY    45  43  93 SE6       30.23F FOG
KOKOMO +       FOG       38  38 100 NE8       30.26R VSB 3/4 WCI  32
MT COMFORT *+  CLOUDY    43  43 100 S7        30.25F
SHELBYVILLE    CLOUDY    45  43  93 SE13      30.25F

$$

INZ033-034-041-042-049-050-058-059-230900-
EAST CENTRAL INDIANA

CITY           SKY/WX    TMP DP  RH WIND       PRES   REMARKS
MUNCIE         CLOUDY    45  43  93 SE10      30.24F FOG
RICHMOND +     DRZL/FOG  41  41 100 SE12      30.31R VSB 1

$$

INZ060-061-067>069-081>083-085>088-230900-
SOUTHWEST INDIANA

CITY           SKY/WX    TMP DP  RH WIND       PRES   REMARKS
EVANSVILLE     LGT RAIN  50  50 100 E6        30.23F
HUNTINGBURG +  LGT RAIN  50  49  96 SE12      30.24F

$$

INZ062-063-066-070>080-084-089>092-230900-
SOUTH CENTRAL AND SOUTHEAST INDIANA

CITY           SKY/WX    TMP DP  RH WIND       PRES   REMARKS
BLOOMINGTON    LGT RAIN  45  45 100 SE10      30.22F
FRENCH LICK *+ CLOUDY    46 N/A N/A E6        30.24F
SEYMOUR +      RAIN      46  46 100 E5        30.28F

$$




USA.gov is the U.S. government's official web portal to all federal, state and local government web resources and services.